Theta_e
349 346 331 326 323 317 315 313 312 311 312 314 314 315 316 319 325 330 332 334 333 329 325 323 322 323 327 332 335 336 335 336 336 337 338 338 338 338 338 338 338 338 338 338 337 337 337 336 336 337 336 334 332 330 330 331 332 332 333 334 334 335 335 336 336 335 334 331 328 323 320 317 316 322 320 323 328 327 331 335 338 338 335 332 328
349 343 332 329 324 318 315 313 312 311 313 314 315 316 317 319 323 328 331 331 329 326 323 323 324 329 335 338 339 338 338 337 337 337 338 338 338 338 338 338 339 338 338 338 337 337 336 336 336 335 334 332 330 328 327 326 326 325 324 325 326 328 330 331 331 329 328 323 321 317 312 311 311 316 319 325 329 330 334 337 338 337 334 330 326
346 339 332 331 324 319 316 314 312 311 313 314 315 317 319 319 321 325 327 327 326 323 323 324 327 334 339 340 339 338 338 338 338 338 338 338 338 338 338 338 338 338 337 337 336 336 335 335 334 332 331 331 330 329 329 327 323 319 318 316 315 316 317 320 322 322 321 318 322 324 315 310 309 311 316 324 328 329 333 335 336 335 333 330 324
345 337 333 332 325 321 316 314 312 311 313 314 316 318 319 318 319 321 323 324 323 322 323 326 331 337 339 339 339 338 338 338 338 338 338 338 338 338 338 338 338 337 336 336 335 334 334 333 332 331 330 329 330 332 332 331 326 323 321 315 311 310 310 312 314 315 319 324 329 331 326 316 308 309 313 319 324 326 327 328 332 333 332 328 321
345 338 333 332 327 323 317 315 312 311 313 314 316 318 319 317 317 318 320 321 320 321 324 329 336 338 338 338 338 338 338 338 337 338 338 338 338 337 337 337 337 336 335 335 334 333 333 332 329 329 328 328 331 332 330 330 328 324 319 312 308 308 308 308 309 316 325 330 332 331 332 325 310 308 311 313 319 320 321 323 328 330 328 323 316
345 338 334 332 328 323 318 315 313 311 313 314 316 319 318 316 316 316 318 317 318 320 326 334 339 338 337 338 337 338 337 337 337 337 338 338 338 337 337 336 336 335 334 334 334 333 332 331 328 327 327 327 330 328 323 321 319 315 312 308 308 307 307 308 312 323 331 331 332 331 332 329 315 309 310 310 312 313 316 319 324 325 322 318 313
345 339 334 331 328 323 319 316 313 311 312 315 316 319 318 316 316 316 316 316 318 323 331 337 339 338 338 337 337 337 337 337 337 337 338 338 338 338 337 336 336 335 333 332 331 330 328 328 326 326 327 328 327 321 316 314 311 309 308 307 307 307 308 310 317 327 332 331 332 332 332 331 319 310 311 311 311 311 313 316 320 320 317 314 312
345 342 337 331 327 322 319 317 313 311 312 315 316 319 319 317 317 316 317 318 323 330 336 338 337 338 338 337 337 336 336 337 337 337 338 338 338 337 337 337 336 335 332 329 328 326 323 321 320 322 324 324 320 315 313 311 309 308 308 307 307 308 310 314 321 328 331 331 332 332 332 329 317 310 312 311 312 313 314 315 316 316 314 312 310
345 344 340 332 326 321 319 318 313 311 312 315 316 319 320 319 318 318 320 325 331 335 337 337 337 337 337 337 336 335 336 336 337 337 337 337 337 336 336 335 334 333 329 324 321 318 317 318 319 319 320 319 316 314 312 310 309 308 308 308 309 312 318 324 328 331 332 332 333 333 332 329 316 309 312 311 312 313 313 314 313 312 311 310 309
345 345 341 332 325 321 319 319 314 311 312 315 316 319 321 321 322 325 329 332 335 337 337 337 337 337 337 337 336 335 335 334 335 335 335 336 335 334 332 331 329 325 319 315 312 311 316 319 320 319 318 317 315 314 312 311 310 310 309 310 312 317 325 331 333 332 332 332 331 328 327 325 313 308 310 310 311 311 310 311 310 310 309 309 308
344 345 342 332 326 322 320 320 314 311 312 314 316 318 321 323 329 333 334 335 336 337 337 336 336 336 337 337 336 335 333 332 331 329 329 329 329 328 326 323 319 314 310 309 308 312 318 320 319 319 318 317 316 315 313 311 311 311 311 312 315 320 326 331 332 332 331 331 331 327 324 318 309 310 310 309 310 309 310 309 309 309 309 309 309
344 345 341 332 328 325 323 321 316 312 311 313 316 318 321 323 330 335 335 335 336 336 336 336 336 337 337 337 336 335 333 330 327 322 319 319 319 318 316 313 310 308 308 308 310 314 319 320 320 321 320 317 316 315 313 311 312 313 313 313 316 321 328 331 331 332 332 333 333 334 331 319 310 311 311 311 311 310 311 310 311 310 310 310 310
344 344 340 333 331 329 327 325 319 314 311 312 314 316 319 322 328 334 335 335 336 336 335 336 337 337 337 336 336 336 333 327 322 317 313 312 311 310 309 308 308 308 308 309 312 316 319 321 321 321 320 318 316 315 313 312 312 312 313 313 315 319 326 330 332 333 333 334 333 334 330 317 311 312 312 312 312 312 312 311 311 311 311 311 311
343 344 340 334 332 332 331 329 324 318 313 311 313 315 317 321 328 333 333 334 335 335 335 336 337 337 337 337 337 336 331 324 318 313 310 309 308 308 308 308 308 308 308 309 313 316 318 320 321 321 320 319 317 316 313 313 313 312 313 313 315 319 324 329 333 333 333 333 333 334 326 312 312 312 312 311 311 312 311 311 311 311 311 311 311
343 344 339 335 333 334 334 332 329 324 318 312 311 313 315 318 327 331 332 333 334 334 335 335 337 337 338 338 336 334 328 321 315 310 309 308 308 309 308 309 309 309 310 311 314 317 318 320 321 321 321 320 319 318 315 314 314 314 314 315 316 320 325 330 333 333 334 333 333 335 324 312 314 311 311 312 311 311 311 312 311 311 311 311 312
344 343 340 337 334 334 335 334 333 330 324 317 312 311 313 316 324 331 332 334 333 333 335 335 336 337 338 337 335 333 327 320 314 310 309 308 309 309 309 309 309 310 311 312 315 317 318 320 320 321 321 321 321 320 318 317 315 316 316 317 317 319 325 330 334 334 335 335 333 334 326 315 316 314 313 312 311 312 311 311 311 311 311 311 312
343 342 341 339 336 336 336 335 334 332 329 324 316 311 312 314 324 331 332 333 332 333 334 334 335 337 336 336 334 331 325 319 314 310 309 309 309 309 309 310 310 311 312 314 316 317 318 319 320 321 321 321 321 321 321 319 317 317 317 318 318 320 325 330 334 334 333 334 334 335 330 318 318 318 316 315 312 311 311 311 311 311 311 311 311
344 342 342 341 340 339 338 336 335 335 332 329 322 315 311 313 321 329 332 331 331 333 333 333 334 335 335 334 332 328 322 318 315 311 309 309 309 309 309 309 310 310 311 314 316 317 318 319 320 321 322 322 321 321 321 321 319 318 318 319 319 321 326 331 334 332 330 333 335 334 327 320 319 320 319 319 316 313 312 311 311 311 311 311 311
343 343 342 341 341 340 340 337 336 337 334 334 328 320 313 311 317 323 329 331 332 332 331 332 333 333 334 332 329 326 322 318 315 312 310 309 309 309 309 309 310 310 311 312 315 318 319 320 321 321 322 323 322 322 322 322 321 319 319 319 320 321 325 332 334 333 333 333 335 331 322 321 321 320 321 321 320 318 315 313 312 311 311 311 310
343 343 343 342 341 341 340 337 338 337 337 337 332 326 319 312 312 316 325 331 334 333 331 332 332 333 334 331 332 333 328 322 320 316 312 309 309 310 309 310 310 310 311 311 313 316 318 320 320 321 321 322 322 322 322 322 322 321 320 319 320 320 323 332 333 333 334 331 333 330 320 321 321 320 321 322 322 322 320 318 316 314 312 311 310
344 344 343 342 342 343 341 339 340 338 339 339 333 330 324 317 311 312 323 331 334 333 331 330 331 333 331 331 336 338 335 332 333 327 318 312 309 310 309 310 310 310 311 311 312 314 316 318 319 320 320 321 321 321 321 320 321 321 320 319 318 319 325 331 332 333 333 332 333 327 320 320 320 320 321 321 323 323 323 322 320 319 315 312 310
345 344 344 343 343 344 343 342 342 341 341 339 336 331 326 322 312 314 326 331 332 331 332 331 332 332 328 333 338 337 336 336 337 333 328 321 312 310 310 310 310 310 310 310 311 312 314 316 318 319 319 319 319 320 322 319 320 319 319 319 316 323 331 329 330 333 332 333 333 326 320 320 319 320 320 321 322 323 324 323 323 322 319 314 311
345 344 344 344 344 344 344 344 342 341 340 339 339 332 330 329 321 322 329 332 331 330 333 333 336 334 329 335 336 333 334 334 333 330 329 325 317 313 311 311 311 310 311 310 310 311 312 314 316 316 318 318 318 323 326 324 322 321 321 319 318 329 333 326 328 333 332 333 331 325 321 320 319 320 320 321 322 323 324 324 324 323 321 317 313
345 345 346 345 345 344 344 343 342 341 340 340 339 335 334 334 332 331 331 332 332 329 331 332 337 337 332 334 333 332 333 328 322 322 324 325 321 317 317 317 315 313 312 311 309 310 311 311 314 315 316 316 319 328 332 331 329 325 323 322 327 334 333 329 331 334 333 333 330 325 323 321 321 320 320 321 322 323 324 325 324 324 322 320 316
345 345 346 345 344 344 343 342 341 340 339 340 339 337 336 335 335 334 333 334 333 331 332 333 336 336 334 334 330 328 333 329 319 323 330 331 327 322 323 323 323 321 315 316 318 315 312 312 315 315 316 318 325 332 334 333 333 331 330 329 333 335 333 332 333 333 333 334 332 327 325 324 323 322 322 322 322 323 324 325 325 324 324 321 319
345 345 345 345 344 343 343 342 341 339 338 339 338 337 335 335 335 335 334 335 334 334 334 334 335 333 333 332 326 325 331 332 327 329 332 332 333 329 328 328 329 330 322 325 332 328 323 324 326 324 324 328 332 334 333 330 331 333 334 334 335 334 333 332 332 333 334 335 333 329 327 326 325 325 324 324 323 323 324 325 325 325 324 322 320
345 345 345 344 343 343 342 341 339 338 337 337 337 335 334 334 335 335 335 335 334 334 334 333 333 333 332 329 329 331 332 332 330 331 331 333 336 335 335 334 333 335 329 329 335 332 330 332 333 332 331 332 331 333 333 330 330 331 332 334 334 333 333 332 333 333 334 335 334 329 328 327 326 327 326 327 326 324 324 325 325 326 325 324 321
344 344 344 344 342 342 341 340 338 336 336 336 335 334 334 335 335 334 334 334 333 333 334 333 333 330 328 328 330 333 333 334 334 334 335 336 338 338 339 338 336 338 335 333 335 333 332 333 333 333 333 330 329 330 333 333 333 333 331 332 333 333 332 331 332 334 335 336 335 332 329 328 328 328 328 328 328 327 325 325 326 326 326 326 323
344 344 344 343 342 341 341 338 336 335 334 334 334 333 334 335 334 334 333 333 334 334 332 330 331 328 325 327 328 331 334 336 337 338 339 339 339 339 339 339 338 338 338 337 337 336 335 335 334 333 333 332 331 330 331 332 333 334 333 331 332 332 333 331 329 332 335 335 335 335 332 330 329 329 329 329 329 329 327 326 325 326 326 327 325
343 343 342 342 341 340 339 337 335 334 334 334 334 333 334 335 334 333 331 333 333 331 329 329 332 331 329 330 329 332 336 337 338 339 339 339 339 339 338 339 338 336 336 336 335 335 335 337 337 335 334 334 334 333 332 332 331 332 334 333 332 332 333 333 331 330 331 331 333 334 332 331 331 330 330 330 330 330 329 328 326 325 326 327 326
343 341 341 341 340 338 337 335 334 334 334 334 333 333 334 335 333 330 330 333 332 330 332 334 335 335 334 333 333 334 336 336 337 336 337 336 337 338 339 339 338 336 335 334 335 335 336 338 338 337 336 335 335 335 334 334 333 332 332 333 334 333 334 334 333 330 327 327 329 332 331 330 330 331 331 331 331 330 330 330 328 326 326 327 327
342 341 341 340 339 337 335 335 334 334 334 334 334 334 334 333 333 332 333 334 333 334 336 335 335 336 335 335 335 335 335 336 335 334 334 334 333 335 336 336 337 337 336 336 336 336 337 338 338 337 335 334 334 334 334 334 334 333 332 332 333 334 334 335 335 331 326 325 325 326 327 327 329 331 332 332 331 331 331 330 330 328 327 327 327
341 340 340 339 337 336 335 335 333 333 334 333 334 335 334 334 335 335 335 335 335 336 336 335 336 335 335 335 335 335 335 335 334 331 331 332 332 332 333 334 337 337 337 335 334 334 335 336 337 337 336 336 337 336 335 335 334 334 334 333 332 333 334 335 336 334 327 325 323 321 321 324 329 330 332 333 331 331 331 331 331 330 329 327 327
341 341 339 338 337 336 335 333 332 333 332 333 334 334 335 335 336 336 336 337 337 336 336 335 336 335 335 336 335 335 334 333 333 332 331 332 333 333 333 334 335 335 334 333 334 335 335 335 337 337 337 337 337 337 336 336 336 335 334 334 333 333 333 333 335 336 331 326 324 322 320 320 325 328 330 333 332 331 331 331 331 330 330 328 327
340 340 339 337 335 334 333 330 331 334 333 333 335 334 336 336 337 338 337 338 337 336 336 335 336 336 336 335 335 334 333 333 333 334 333 334 335 335 335 335 334 332 333 333 334 336 335 335 335 336 336 335 335 335 335 336 336 335 335 334 334 333 333 333 335 336 333 329 327 327 325 321 321 324 329 332 332 331 330 330 331 331 330 329 328
340 339 338 336 335 334 333 331 332 334 334 335 336 335 337 337 337 338 337 336 336 335 335 335 336 336 335 335 334 334 334 334 334 335 335 336 336 336 336 335 332 332 333 333 333 335 335 334 334 334 334 334 335 335 335 337 337 336 336 336 336 334 334 334 335 335 333 333 332 331 329 326 323 322 326 331 333 332 330 330 331 330 331 330 329
340 339 337 334 334 335 337 335 335 336 336 336 336 336 336 337 337 337 336 336 335 335 335 335 336 336 337 337 335 335 335 335 336 336 335 336 336 336 336 335 333 334 334 334 335 335 335 334 333 333 334 334 335 334 335 336 337 337 336 337 336 334 334 335 334 334 333 333 333 333 331 329 328 326 326 330 332 333 332 332 331 331 331 330 330
340 339 335 333 336 339 338 337 337 336 336 336 336 336 337 337 337 337 337 336 335 335 336 337 337 337 338 338 337 336 335 335 336 336 335 335 335 335 335 334 334 335 334 335 335 335 335 335 334 334 335 334 333 334 334 335 335 336 336 336 335 334 335 335 333 332 333 334 333 333 333 331 330 330 329 330 331 331 331 332 332 332 331 330 331
339 338 336 337 340 339 338 337 337 337 336 336 336 336 337 336 337 336 336 337 336 336 337 338 339 339 338 338 336 336 335 336 336 336 335 335 335 336 335 333 333 334 334 334 335 335 335 334 334 334 334 333 333 333 334 334 335 335 335 334 334 334 334 334 333 332 333 335 334 333 334 332 331 332 332 332 332 328 327 330 331 331 330 330 331
338 337 338 340 340 338 337 337 337 337 337 336 336 336 336 337 337 336 336 338 337 338 339 339 340 339 339 338 337 336 336 336 336 335 334 334 335 336 335 333 333 334 335 334 334 333 333 333 334 333 333 332 332 333 333 334 335 335 333 332 332 333 333 333 333 333 333 334 333 334 335 334 332 332 331 333 333 330 329 329 330 330 330 330 331
338 337 338 339 338 337 336 336 337 337 336 336 337 337 337 337 337 336 337 339 338 338 339 339 339 339 338 338 338 336 336 336 335 335 334 334 334 334 335 334 333 335 334 333 332 331 332 333 332 332 332 331 332 334 334 333 334 334 334 333 332 332 333 334 333 334 334 334 334 334 334 334 333 333 332 332 333 332 332 332 330 330 330 330 330
339 337 338 338 337 337 337 337 336 336 336 337 337 336 336 335 335 336 338 338 338 339 338 337 338 337 337 337 337 336 336 336 336 335 335 335 335 335 335 334 333 332 330 330 331 332 333 333 332 333 332 331 332 333 333 333 334 334 333 333 333 333 334 334 335 335 334 334 335 334 333 332 332 333 333 333 333 333 332 332 332 331 330 330 330
338 337 337 337 337 337 338 337 336 337 337 336 336 335 335 334 335 337 338 338 339 339 338 338 337 336 336 336 336 335 334 335 334 334 334 335 335 334 334 332 330 328 326 328 331 333 334 333 333 332 332 332 332 332 332 333 334 333 331 333 334 333 333 333 333 333 332 332 333 332 331 332 332 332 332 333 333 332 332 333 332 331 331 331 331
335 336 337 337 337 337 338 338 337 337 337 336 336 334 333 336 337 337 338 338 338 337 337 336 336 335 335 334 334 333 332 333 332 332 333 332 333 333 332 330 327 327 328 330 332 333 333 333 333 333 332 333 333 333 332 331 333 333 332 332 333 333 333 333 332 332 333 331 330 330 330 331 332 332 332 331 331 332 332 332 332 331 331 332 331
333 336 336 337 337 337 337 337 337 336 336 336 335 334 335 336 338 337 337 337 337 336 335 334 334 334 334 333 333 332 332 331 330 331 331 331 331 331 329 329 329 330 330 331 332 332 331 332 333 333 333 333 333 333 333 332 332 332 333 332 332 332 332 331 331 332 332 331 331 331 331 331 331 332 332 331 330 331 331 331 331 332 332 331 331
334 336 337 337 337 337 336 336 336 336 336 335 334 334 337 337 337 337 337 337 337 336 335 334 334 333 333 333 332 331 330 329 328 328 328 329 329 328 328 329 330 330 329 330 330 330 332 332 332 333 333 333 332 333 333 333 332 331 332 333 332 332 331 331 331 332 332 331 333 333 332 332 332 331 331 331 330 330 331 331 331 331 331 332 331
336 337 337 336 335 335 335 335 335 334 333 334 334 335 337 337 337 337 337 337 336 335 334 333 333 333 332 332 331 329 327 327 327 325 324 325 326 327 327 328 328 328 328 329 329 329 330 330 331 331 331 332 332 332 333 333 333 332 332 332 332 331 332 332 332 332 332 331 332 333 333 333 332 332 331 331 330 329 330 330 330 330 331 331 331
336 337 336 335 335 335 335 335 334 334 334 335 335 336 337 337 337 337 337 336 335 333 333 332 332 332 331 331 330 328 326 325 324 324 323 323 323 324 325 325 325 325 325 326 327 326 325 325 327 328 329 330 330 331 332 332 332 332 332 332 332 332 332 332 333 332 332 332 331 332 332 332 332 332 332 330 330 330 331 330 329 330 331 331 331
336 335 335 335 335 335 334 334 334 334 336 335 336 336 336 336 336 335 334 333 333 332 332 332 332 332 331 329 328 326 326 325 323 323 323 323 323 322 322 321 321 321 321 322 323 323 322 320 323 324 324 326 328 330 331 331 331 331 332 331 331 332 332 333 333 332 332 333 332 332 332 332 331 331 331 331 331 330 331 331 329 329 330 331 331
335 333 333 334 334 334 334 334 334 334 335 334 334 334 334 334 333 333 333 332 332 332 332 332 331 331 329 328 326 324 324 324 323 322 321 321 321 321 320 319 319 318 319 318 318 319 319 318 320 322 323 324 325 327 328 329 330 330 330 330 331 331 331 332 332 331 332 333 332 331 331 332 331 331 331 331 331 331 331 333 331 329 329 330 330
334 333 333 333 332 333 334 334 333 333 333 332 332 332 332 332 332 331 332 332 332 331 332 330 329 328 327 326 325 322 322 322 321 321 320 319 319 318 317 317 316 315 315 315 314 315 316 316 318 321 322 321 321 323 324 325 326 327 327 329 330 330 330 331 331 331 332 331 331 331 330 331 331 331 331 331 331 331 331 333 334 331 329 328 329
Wind_Speed
15 16 18 16 13 13 11 11 10 9 8 8 9 11 13 14 14 14 13 11 10 9 9 11 13 15 17 17 16 15 14 13 13 12 12 12 12 13 12 13 13 12 11 11 11 10 10 10 10 10 10 10 9 9 8 8 8 7 7 6 5 4 4 4 4 5 5 6 7 8 6 5 2 3 4 7 6 6 9 11 10 8 7 8 9
18 18 19 16 13 13 12 11 10 10 9 9 9 11 13 14 14 14 13 11 10 10 11 13 15 16 16 15 14 14 14 13 12 12 12 12 12 12 12 12 12 12 11 11 10 10 10 9 9 10 9 9 9 9 9 8 7 7 6 5 4 3 3 3 4 5 6 8 10 12 8 5 4 6 7 8 8 7 9 10 9 6 6 7 8
20 20 21 17 14 13 12 12 10 10 10 10 9 11 13 14 14 13 13 12 11 11 12 15 15 15 14 14 13 13 13 12 12 12 12 12 12 12 11 11 11 11 11 10 10 9 9 9 9 9 8 8 9 10 9 8 7 7 7 7 5 4 3 3 4 5 8 11 13 16 14 9 7 8 9 8 8 8 7 7 6 5 6 6 7
20 22 22 17 15 13 12 12 10 10 10 11 10 11 12 14 14 13 13 12 12 12 14 15 14 14 13 13 12 12 12 12 11 11 12 12 12 11 11 11 10 10 9 9 9 8 8 8 8 7 7 8 8 9 9 8 7 6 7 8 6 5 3 3 5 7 11 16 17 16 14 12 8 7 9 8 7 7 6 4 4 4 5 5 6
19 23 22 18 16 13 13 12 11 10 10 11 10 11 12 13 13 13 13 12 13 13 14 14 13 12 13 13 12 12 11 11 11 11 11 11 11 11 10 10 9 8 8 8 8 8 8 7 7 6 7 7 7 8 8 8 6 6 7 7 7 7 7 7 9 14 18 19 19 15 8 10 8 7 8 8 7 5 5 4 3 3 3 4 5
20 23 22 19 17 14 14 13 11 10 11 11 10 12 13 14 14 14 14 14 14 14 14 13 12 12 13 12 12 12 11 10 10 10 11 11 11 10 9 8 8 7 7 7 8 8 7 7 6 6 7 7 6 7 8 7 7 6 6 7 9 10 12 12 15 19 20 19 18 13 7 7 7 6 8 8 6 5 4 3 3 2 3 3 4
20 22 22 20 18 16 14 13 11 10 11 12 11 12 13 14 15 15 15 14 14 14 13 12 12 13 13 12 11 11 10 9 9 10 10 10 10 10 9 8 7 6 6 5 5 6 5 5 6 7 7 7 7 8 8 8 8 7 8 9 11 13 14 15 18 20 19 19 13 8 7 5 6 7 8 8 8 6 5 4 3 2 2 2 3
19 21 21 20 18 16 15 14 12 11 12 12 12 12 13 14 15 15 14 14 13 13 12 12 12 13 12 11 11 10 9 9 9 9 9 10 9 9 8 7 6 5 4 3 2 2 3 4 6 7 7 7 7 8 8 8 9 9 10 12 12 13 16 18 19 20 19 17 10 7 8 5 5 7 8 9 9 8 8 6 4 3 3 2 3
19 19 19 20 18 16 15 14 12 12 12 13 13 12 13 14 15 14 14 13 12 11 11 12 13 13 12 11 11 10 9 9 8 8 8 8 8 7 6 4 2 1 2 2 2 3 5 7 8 8 8 8 9 9 9 10 10 11 12 12 14 16 19 21 20 20 17 11 7 9 9 5 5 8 8 9 8 7 8 7 6 4 3 3 3
21 18 17 20 18 17 16 14 13 12 13 14 14 13 14 15 15 14 13 12 12 11 11 12 13 13 12 11 10 9 9 8 7 6 6 6 5 4 3 1 0 1 2 3 4 6 8 10 11 11 10 9 9 10 10 11 11 12 12 13 16 19 22 22 20 18 12 7 6 10 11 7 6 7 9 9 7 6 7 7 6 5 4 4 3
21 17 16 21 19 17 16 14 13 12 13 14 14 14 14 15 15 15 13 12 12 12 12 12 13 12 11 10 10 9 7 7 5 4 4 4 3 2 2 1 1 3 4 6 7 9 11 11 12 11 10 10 10 11 11 12 12 13 14 15 18 21 23 21 20 15 8 8 9 8 7 6 8 8 9 8 7 6 6 6 5 4 4 4 4
20 17 17 21 19 17 16 14 13 12 13 14 14 15 14 15 15 15 14 13 12 11 13 13 13 12 11 10 9 8 6 5 4 3 3 4 3 3 3 3 4 5 6 8 10 12 13 12 12 11 10 10 11 11 12 13 14 15 16 17 19 22 23 21 20 12 7 8 9 8 5 5 8 8 9 8 7 6 6 5 4 4 4 4 3
21 18 18 21 19 17 16 14 13 11 12 13 14 14 14 15 15 15 14 14 12 11 12 12 12 11 10 9 8 7 5 4 3 3 4 4 4 5 5 5 6 6 7 10 12 14 14 13 12 11 10 10 11 12 12 14 15 15 16 16 18 21 22 21 17 9 7 8 7 6 3 6 8 8 8 7 7 6 6 5 5 5 4 4 4
21 18 17 21 20 17 15 13 12 11 11 12 13 13 13 14 15 15 13 13 12 11 12 12 11 10 9 8 7 5 4 4 4 4 5 6 6 6 6 6 7 7 8 10 13 14 14 13 11 10 10 10 11 11 12 13 14 15 15 15 16 19 20 20 13 6 7 7 8 5 2 6 7 7 7 7 7 6 6 5 5 5 4 4 3
19 16 18 21 20 17 15 13 12 11 12 12 12 12 12 13 15 15 13 12 12 11 11 11 10 9 9 8 6 4 4 4 4 5 5 6 6 6 6 6 7 7 9 11 13 14 13 12 11 10 9 9 10 11 11 12 13 13 13 12 13 15 18 18 9 4 7 5 6 3 2 5 5 5 5 5 5 5 5 5 4 3 3 2 2
17 16 19 21 19 18 16 14 13 12 12 12 12 11 11 12 14 15 13 12 11 11 11 10 9 8 8 6 5 3 3 4 4 5 5 5 5 5 6 6 6 7 9 11 13 13 12 12 10 10 9 9 9 9 10 10 11 11 11 11 11 13 16 18 9 3 5 4 4 1 3 5 5 4 4 3 3 3 3 3 3 3 2 1 1
18 17 18 19 18 17 17 15 14 12 12 11 12 12 11 12 14 15 14 12 11 11 11 10 9 7 7 5 3 3 3 4 4 4 4 4 4 5 5 5 5 6 8 10 12 13 12 11 10 9 8 8 7 8 9 8 9 9 10 11 11 12 13 16 10 2 3 5 4 1 2 4 4 3 3 2 1 1 2 3 3 3 3 3 3
19 17 17 19 16 14 15 16 15 13 13 12 12 12 12 13 14 15 14 13 12 11 11 10 8 7 6 5 3 2 3 3 3 3 3 3 4 4 4 4 5 4 6 8 10 11 11 10 9 8 7 7 6 6 6 6 7 7 8 9 10 12 12 15 11 2 3 7 3 3 3 6 5 3 2 1 1 1 2 3 4 5 5 5 5
19 18 17 19 17 15 13 15 15 13 13 13 13 13 12 13 13 14 14 13 12 10 10 9 8 7 6 5 4 4 3 2 2 2 2 2 2 3 3 3 4 4 4 6 8 9 9 9 8 7 6 5 5 5 4 5 4 4 6 6 8 8 10 13 8 2 3 4 2 4 5 6 5 5 3 2 1 2 3 4 5 6 7 7 7
19 19 19 19 19 16 12 13 13 11 11 10 12 14 12 13 12 13 14 14 12 11 11 10 8 7 5 4 5 6 5 3 2 1 0 1 1 1 2 2 2 3 3 4 5 6 7 7 7 6 5 5 4 3 2 2 2 2 3 3 4 3 6 8 4 1 1 0 3 5 4 5 5 5 4 3 3 3 3 4 5 7 8 9 9
19 19 19 20 18 14 12 12 11 10 10 7 9 13 12 12 12 13 15 14 12 11 11 8 7 5 4 6 6 5 3 3 2 3 2 1 1 1 1 1 1 1 2 3 4 4 5 5 5 5 5 4 3 2 0 0 1 1 1 1 1 1 2 2 1 1 1 1 4 6 4 5 5 5 5 4 4 4 4 4 5 7 8 9 10
20 19 19 19 16 13 13 12 12 12 12 8 8 11 13 12 12 14 14 12 11 10 9 7 6 4 5 6 4 4 2 2 2 1 2 3 2 1 1 1 1 1 1 2 3 4 4 4 4 4 4 3 3 2 2 3 3 4 3 3 3 2 2 2 2 1 2 1 7 8 5 6 5 6 6 5 4 5 5 5 5 6 8 9 10
20 20 19 17 14 13 14 13 14 13 11 9 8 9 11 10 11 14 14 12 9 9 9 7 6 5 4 6 4 4 4 4 5 5 3 2 2 1 2 1 1 1 1 2 2 4 5 5 5 5 4 3 3 3 4 6 6 7 6 5 4 1 4 5 1 2 3 3 10 9 5 7 6 7 7 6 5 5 6 6 6 5 6 8 9
20 19 17 15 14 14 14 14 13 12 11 10 8 8 9 8 8 11 12 12 10 10 9 8 7 6 6 6 5 4 4 4 6 5 3 0 1 1 2 2 3 2 1 2 3 4 5 6 7 7 7 7 4 3 5 9 9 9 8 7 4 3 6 5 4 6 4 6 11 8 6 8 7 7 7 7 7 6 6 6 6 5 4 6 8
20 18 15 15 14 14 14 13 12 12 11 10 9 9 11 9 9 10 10 10 10 10 9 8 8 7 5 5 5 5 6 3 4 5 2 1 1 2 3 4 4 3 3 3 3 3 4 5 6 8 8 7 5 5 8 9 10 10 9 8 5 7 8 6 7 8 6 8 11 9 8 9 8 8 8 8 8 8 7 6 7 6 4 4 6
19 16 15 14 14 14 13 13 12 12 10 10 10 10 12 11 10 11 11 10 9 9 8 7 7 7 5 5 5 6 6 3 4 4 3 4 2 1 2 3 2 3 4 2 3 4 4 5 7 8 7 6 7 8 11 12 10 10 9 10 9 8 8 8 9 9 8 9 13 11 8 9 9 9 9 9 9 9 9 7 7 7 5 4 5
17 16 15 14 15 14 13 13 12 11 11 11 12 11 12 12 11 12 11 10 11 9 8 8 6 7 6 6 6 4 4 3 2 3 4 5 5 4 3 3 2 3 5 2 4 6 4 5 7 8 7 8 10 10 12 13 11 11 11 11 11 11 10 10 10 10 9 9 14 13 9 10 10 10 10 9 10 9 9 8 7 7 7 5 6
15 16 15 15 15 15 14 12 11 13 13 12 12 12 12 12 13 13 10 9 11 9 9 9 8 7 7 7 6 4 4 4 3 4 4 4 5 5 4 3 2 3 6 4 4 6 5 7 8 8 9 9 10 11 12 12 11 12 12 12 13 13 13 12 12 11 10 10 14 16 12 11 11 11 11 11 11 10 10 9 7 6 7 7 7
14 15 15 16 17 16 14 13 13 14 15 13 12 13 12 11 12 13 12 11 11 10 10 9 8 6 7 7 5 5 5 5 5 4 4 4 4 4 4 3 4 5 7 5 5 7 6 7 8 8 9 9 10 11 12 12 12 14 13 12 13 14 14 15 15 13 13 12 12 15 15 14 13 13 12 12 12 12 11 10 9 8 7 7 7
16 15 14 15 17 15 13 14 15 14 14 15 14 13 12 11 12 13 12 12 11 10 9 8 7 6 6 6 6 6 6 6 5 4 4 5 4 4 4 3 6 7 8 7 7 8 7 6 8 8 8 9 10 10 12 13 13 14 14 14 13 14 15 16 17 16 17 16 14 15 16 15 16 15 15 15 14 14 13 12 11 10 8 8 8
17 17 15 15 16 16 15 16 17 15 15 15 14 14 14 13 13 12 11 11 11 10 9 8 8 7 7 7 7 6 6 6 5 4 4 4 4 4 4 4 6 7 7 6 6 7 7 7 8 9 9 10 11 11 11 12 13 14 15 15 14 15 15 16 18 19 20 18 16 15 17 17 17 17 17 17 16 15 15 13 13 12 11 9 9
18 18 17 17 16 17 17 16 17 18 16 16 15 15 15 15 13 11 11 12 11 10 10 10 9 8 7 7 7 6 5 4 4 4 4 3 3 4 4 4 5 6 6 6 6 7 8 9 10 11 12 12 12 12 12 13 14 14 15 15 15 15 15 16 18 21 22 20 19 18 18 18 18 18 19 20 19 17 16 15 14 14 13 11 10
18 17 17 17 17 18 17 16 17 18 18 16 16 16 15 15 13 12 13 13 12 11 10 9 8 7 6 6 5 5 4 4 3 4 4 3 2 2 3 3 4 4 6 7 7 8 9 9 10 11 12 11 12 13 13 14 15 15 15 16 16 16 16 16 17 22 25 23 23 23 21 20 19 20 20 20 20 19 18 16 15 15 14 13 12
16 15 16 17 17 18 19 18 17 17 18 17 17 18 16 15 14 13 13 12 11 11 10 9 7 6 5 5 4 4 4 3 2 1 0 1 0 1 2 3 4 5 7 7 7 8 9 9 9 10 11 11 12 13 13 14 16 16 16 16 17 17 18 19 18 22 26 26 28 27 25 24 22 23 23 21 21 20 18 16 16 16 15 14 14
16 15 16 18 18 18 18 17 17 17 17 17 18 19 17 16 14 13 13 11 10 9 9 9 8 6 5 4 4 4 3 2 1 1 2 2 1 2 3 3 4 5 6 7 7 7 9 9 10 11 12 12 13 14 14 15 16 16 17 17 19 18 18 20 20 21 24 26 27 27 28 28 26 26 25 23 22 21 18 18 17 16 16 15 15
16 16 17 18 17 17 17 16 16 17 18 19 20 20 18 17 15 13 12 10 9 8 9 8 8 7 6 5 4 3 2 2 1 1 2 2 2 2 3 4 5 5 5 6 6 7 8 9 10 11 12 13 14 15 15 15 15 16 16 16 18 19 20 22 22 22 23 24 23 22 24 26 26 26 25 24 22 21 20 19 19 18 17 17 16
15 16 17 18 17 17 16 17 17 18 19 19 18 18 17 15 14 13 11 10 10 9 9 8 8 7 6 5 4 3 2 1 1 1 1 1 2 2 4 5 5 5 5 6 6 7 7 8 9 10 11 12 13 14 15 14 15 16 16 17 19 20 20 22 22 22 23 24 23 23 22 21 24 25 24 24 22 21 21 20 20 19 17 17 18
14 14 17 17 17 17 18 19 19 19 18 17 16 15 15 13 12 12 11 11 11 10 9 9 8 7 6 5 4 3 2 1 1 0 1 1 1 2 4 5 6 6 7 6 7 8 7 8 10 10 10 12 13 14 14 15 15 16 17 18 20 21 20 21 23 22 22 24 23 23 21 19 22 24 23 23 22 22 23 22 21 20 19 19 19
13 14 16 16 15 16 18 18 17 18 17 16 15 14 13 13 12 12 11 10 11 11 10 9 8 7 6 5 3 3 2 1 0 0 1 1 2 3 5 6 6 7 7 7 7 8 9 9 10 11 11 12 13 14 15 15 15 16 18 19 20 21 20 21 24 22 21 22 22 20 20 20 22 23 21 21 22 24 24 24 23 23 23 22 20
13 14 15 14 14 15 16 16 16 17 16 14 14 13 12 13 12 12 12 11 10 12 11 9 8 7 6 5 3 2 2 1 0 1 1 1 3 4 5 7 7 7 7 8 8 9 10 10 11 11 12 13 13 14 14 14 15 17 18 19 20 21 21 21 21 21 20 21 21 19 20 21 21 22 22 21 22 24 23 24 26 25 25 24 22
12 13 12 11 13 15 16 16 15 16 16 14 14 13 12 12 11 11 12 11 10 11 11 10 9 8 6 5 4 3 2 1 0 2 2 3 4 5 6 7 7 7 8 9 10 10 10 11 11 11 12 14 14 13 13 14 14 16 16 18 20 19 19 20 19 19 20 20 20 20 21 22 21 20 21 22 22 24 22 23 25 26 26 25 24
11 11 12 10 11 14 16 16 15 15 15 14 13 13 12 11 11 10 11 11 10 11 10 9 8 7 6 5 4 3 2 2 1 2 2 3 4 5 6 6 6 7 9 10 10 10 10 11 12 11 12 13 14 13 12 13 13 14 17 18 19 16 15 16 17 16 17 17 19 20 20 21 21 20 20 20 21 24 24 23 26 28 27 26 25
10 10 12 13 12 12 13 15 16 15 15 14 13 12 12 12 11 11 11 11 11 11 9 9 7 5 5 5 4 4 4 3 3 4 4 4 4 4 5 6 6 8 9 9 8 8 9 11 12 13 13 13 13 12 12 12 13 15 16 16 16 16 14 12 13 15 15 17 18 19 18 18 20 20 21 21 22 24 25 25 27 27 26 25 25
11 9 10 13 13 11 11 14 15 14 14 13 13 12 13 13 12 11 10 9 9 8 6 6 6 4 4 4 4 3 3 3 3 4 4 6 6 6 6 6 6 7 7 7 7 7 8 10 12 12 13 13 12 11 12 13 13 13 14 15 15 14 12 11 15 18 15 16 17 17 17 17 18 18 20 22 22 23 25 26 26 25 25 27 27
11 11 10 11 12 11 12 13 13 12 12 12 12 12 12 11 12 10 9 8 7 6 4 4 4 5 3 2 2 2 1 0 2 2 3 3 4 4 4 4 4 5 5 5 5 6 7 8 10 11 11 13 12 11 12 12 13 12 12 15 14 11 12 15 19 18 15 15 15 15 17 17 17 18 20 21 21 23 25 26 26 25 26 27 27
11 13 12 10 9 9 12 10 9 10 11 11 10 10 9 9 9 9 8 8 7 6 5 5 5 5 4 2 1 2 2 1 0 2 3 2 2 3 4 4 3 4 5 6 6 6 6 7 8 9 9 11 12 12 12 12 14 14 12 14 14 12 16 19 18 17 18 17 14 14 17 17 17 19 21 20 20 22 23 25 26 26 27 27 26
13 14 12 11 9 9 10 9 9 9 10 10 9 9 9 9 9 9 8 7 6 5 6 6 5 4 4 2 0 0 2 1 2 2 3 2 1 2 3 3 3 3 4 4 5 6 6 6 7 8 8 9 10 12 12 12 14 14 13 15 16 15 17 17 17 19 20 19 15 14 16 18 18 19 20 20 20 21 21 23 25 26 28 28 25
15 14 13 13 13 11 10 10 10 9 10 11 10 10 9 9 9 8 7 6 5 5 6 6 4 3 3 2 1 1 2 2 2 2 3 3 2 1 2 2 3 4 4 3 4 6 7 7 7 7 8 8 8 10 12 12 13 14 14 15 15 16 17 17 18 19 19 22 22 17 15 17 18 19 21 20 19 20 20 22 23 25 27 27 25
16 16 16 16 15 13 11 10 11 10 9 10 9 9 9 8 7 6 5 6 5 5 5 4 4 3 2 2 2 3 3 3 2 1 1 2 2 3 3 4 4 5 5 5 6 7 9 8 8 9 9 9 8 8 10 11 12 13 14 16 15 16 17 17 17 17 17 21 24 20 17 19 20 21 21 20 20 20 21 22 22 23 25 25 24
19 18 18 17 15 13 12 11 10 9 8 7 7 7 7 6 6 5 5 5 5 5 4 4 4 2 1 2 3 2 2 2 2 1 1 2 3 4 5 6 6 7 7 7 7 7 9 8 8 9 9 9 9 9 12 13 12 12 13 15 16 16 17 17 17 17 17 18 22 23 21 20 22 23 21 20 22 22 20 21 23 23 23 23 23
23 21 19 17 15 12 11 10 9 8 6 4 4 4 4 5 6 7 7 7 7 6 5 5 4 3 2 3 3 2 1 1 1 2 2 3 4 5 5 6 7 7 8 8 8 8 8 8 6 7 9 10 10 10 12 13 13 13 13 13 14 15 16 18 18 18 19 20 22 24 25 22 23 23 21 20 21 22 21 20 22 23 23 23 23
Wind_Direction
165 192 180 175 179 168 163 152 140 134 143 144 145 144 136 138 144 152 156 157 154 145 133 124 122 118 112 107 103 101 102 102 102 100 99 98 97 97 98 99 100 99 99 97 96 93 89 86 83 81 73 68 64 61 64 64 65 66 65 68 69 70 70 68 60 52 40 21 8 352 338 336 343 150 124 107 109 108 105 96 83 72 68 61 62
164 185 172 172 177 167 164 153 144 137 143 144 147 144 135 138 144 152 157 157 152 142 132 127 125 117 108 103 101 102 103 103 103 101 99 99 98 100 99 100 100 98 96 92 89 86 83 82 80 74 66 62 56 53 54 53 54 56 52 45 41 40 35 36 33 34 26 16 19 18 12 9 50 130 140 122 118 110 104 97 91 90 82 64 61
163 175 167 169 170 169 164 154 146 138 144 145 147 141 134 138 143 151 153 154 149 141 134 130 124 112 105 103 104 105 105 106 105 103 102 100 99 100 97 97 97 96 94 88 82 80 80 77 69 63 61 59 54 51 47 45 46 42 33 23 13 5 357 358 22 24 27 36 43 36 29 31 61 119 138 135 131 124 115 101 92 95 80 55 48
162 168 165 165 164 169 163 155 148 141 144 143 147 139 135 137 142 146 148 150 146 141 136 128 118 108 108 109 108 108 108 108 107 105 104 101 101 99 96 99 98 93 87 84 79 77 80 67 56 55 58 56 52 47 38 37 36 28 15 9 6 9 16 27 43 47 56 59 60 50 25 20 51 110 134 140 144 143 141 129 100 88 67 48 45
157 163 164 161 160 166 162 155 148 146 144 141 144 137 135 137 140 142 146 148 143 141 134 123 112 109 112 113 113 111 111 110 110 109 106 103 102 100 98 99 95 89 83 85 83 77 75 60 46 48 52 51 48 38 31 36 32 22 12 15 29 44 64 70 80 76 71 67 64 67 35 14 43 97 123 135 147 160 159 146 116 91 59 47 57
151 160 162 160 160 163 160 153 148 150 143 140 140 135 136 136 137 139 143 143 140 138 129 119 113 114 115 117 118 115 114 111 112 112 107 105 104 102 100 99 95 91 85 83 84 80 75 63 55 56 60 60 49 35 34 42 38 34 34 46 58 67 75 83 91 83 74 69 62 67 63 24 33 84 109 122 135 149 151 139 124 96 70 66 74
149 156 161 163 160 161 157 149 149 152 144 141 138 135 135 135 136 137 140 138 137 134 125 119 118 119 119 120 120 118 119 115 115 114 111 111 109 107 104 102 100 96 90 78 82 84 79 74 75 77 75 68 52 45 48 51 52 56 63 71 77 80 83 89 91 84 75 71 68 72 82 53 34 78 103 111 118 124 126 129 131 116 99 98 92
146 150 158 164 162 162 154 146 151 153 147 142 139 138 135 136 135 135 136 135 133 129 123 122 123 123 122 121 119 120 121 120 119 117 116 116 113 113 111 108 104 96 80 60 64 65 81 96 95 93 86 74 63 60 61 64 68 73 78 82 84 86 89 89 84 76 69 69 75 79 76 59 58 86 99 106 115 124 127 127 132 134 123 112 93
145 146 157 164 163 163 153 145 152 153 148 143 142 140 136 136 135 135 134 132 130 126 124 125 128 129 127 122 120 123 124 125 126 125 124 122 123 123 124 123 111 68 48 49 62 69 96 106 102 100 93 82 75 72 71 73 78 82 86 87 87 92 89 80 73 67 65 71 92 102 94 74 75 96 100 105 114 123 128 124 129 138 132 120 97
146 148 158 163 163 164 154 145 152 153 148 144 143 141 139 140 137 135 133 134 134 131 129 129 134 134 130 127 127 129 130 133 134 137 139 140 142 142 148 149 147 33 72 87 95 99 106 107 103 99 92 85 81 80 79 80 83 88 90 91 95 97 88 78 71 64 66 77 97 123 119 103 90 97 101 104 107 116 123 117 123 135 132 123 107
147 150 158 161 162 163 154 146 151 153 148 144 142 141 143 143 138 135 137 138 136 135 133 136 138 136 135 133 137 137 136 139 143 154 165 174 174 172 174 146 118 102 103 106 109 111 112 108 104 100 95 90 85 83 83 86 89 92 93 94 97 96 90 83 75 67 74 76 72 87 89 94 100 98 99 101 104 110 114 114 122 130 122 111 103
146 151 163 161 160 161 154 147 148 150 147 144 140 141 145 144 140 138 141 139 137 138 136 140 141 140 140 139 143 141 141 147 157 177 185 186 173 161 146 130 118 110 114 114 116 119 117 111 106 103 99 95 90 87 88 93 97 97 95 96 96 93 90 83 76 74 77 76 81 85 73 92 104 105 104 103 105 106 105 107 109 108 104 101 99
147 158 167 158 158 159 152 146 144 147 144 143 142 141 143 143 141 140 143 141 140 141 138 141 143 147 147 145 149 143 148 160 171 178 170 161 139 132 125 120 116 111 116 118 123 124 121 116 111 106 101 98 95 93 94 97 100 100 98 97 96 93 90 82 77 78 77 74 84 93 99 100 102 107 105 104 103 102 103 106 105 101 102 106 103
154 171 169 158 160 156 149 147 142 143 141 141 142 142 143 144 143 142 144 142 140 143 143 145 149 153 153 152 155 153 159 163 173 167 152 140 129 126 119 114 111 112 118 123 128 128 126 120 115 110 103 103 100 98 98 98 100 101 100 98 97 95 90 84 76 81 89 76 71 65 38 79 91 101 102 104 104 107 111 114 116 114 116 118 111
156 168 166 161 160 153 149 147 143 141 137 137 140 145 147 146 145 142 141 139 142 147 148 152 157 159 157 159 162 168 169 167 167 157 147 135 129 125 119 114 110 111 120 127 132 132 130 125 120 114 109 107 102 100 99 99 100 99 99 97 96 95 94 93 87 84 85 76 85 75 5 64 76 86 99 108 112 118 120 124 127 130 134 131 131
151 151 157 161 159 155 152 147 147 143 138 137 137 144 147 148 146 142 141 142 147 150 152 156 164 169 168 171 173 180 173 171 165 152 149 136 130 126 122 116 112 110 119 130 136 137 134 130 126 118 116 112 106 102 100 101 101 100 97 91 90 94 101 101 94 68 83 95 100 48 343 53 67 66 81 100 122 139 138 147 154 166 176 197 216
149 147 150 155 157 156 154 152 152 146 141 137 137 143 148 150 149 146 144 147 151 152 157 162 171 177 177 182 175 184 179 171 169 158 154 143 136 131 131 125 117 112 117 131 138 141 140 137 133 126 123 118 115 107 103 104 102 103 96 89 87 87 94 97 92 85 127 112 88 110 315 7 35 49 56 69 118 188 202 206 208 213 215 233 249
148 148 147 148 151 150 156 157 153 152 148 142 141 144 147 152 153 151 149 151 155 157 162 166 176 182 176 173 146 137 152 158 172 169 161 152 146 136 136 135 128 121 121 133 139 143 145 144 139 133 130 126 125 115 112 108 103 106 98 95 91 88 88 88 88 48 80 92 93 216 293 340 351 6 14 34 351 256 246 241 236 237 236 242 253
152 149 148 149 149 153 167 162 155 158 152 147 147 145 148 153 155 156 152 150 155 162 166 169 179 185 176 159 109 84 92 134 162 168 171 160 154 145 138 141 141 137 132 137 142 146 148 148 145 141 139 136 133 124 120 112 111 107 101 103 96 97 92 82 81 33 29 82 179 258 320 332 326 335 336 346 321 284 268 260 256 251 247 247 251
155 153 153 154 156 163 175 165 158 157 150 156 153 148 151 152 156 160 154 149 156 165 170 174 178 184 181 143 93 74 55 56 83 28 207 175 184 165 152 153 152 147 148 151 157 158 153 153 154 155 154 154 152 140 129 118 121 106 102 101 100 120 95 78 80 119 3 46 225 266 324 316 315 325 322 334 326 303 286 270 268 262 256 251 251
156 157 158 158 161 163 165 158 155 152 153 171 163 154 153 152 156 158 154 152 162 169 167 165 163 174 158 123 99 95 77 56 66 2 350 263 221 199 218 187 174 167 162 168 181 188 176 173 170 171 173 174 180 171 174 305 307 304 336 32 339 275 56 79 137 151 294 341 257 276 316 301 310 317 309 320 314 314 307 287 277 273 270 258 251
156 159 160 160 161 158 157 153 154 157 158 166 167 163 154 153 157 152 152 157 164 162 153 144 146 159 135 128 125 138 152 130 136 301 301 283 258 203 260 249 237 236 217 201 197 215 224 219 208 206 203 201 217 222 272 291 290 290 298 318 308 332 348 253 153 227 257 202 256 274 301 291 302 305 300 303 298 310 311 302 288 280 279 266 255
159 160 161 161 159 157 158 155 158 159 159 162 166 169 157 151 152 151 155 160 163 155 151 155 162 176 166 162 175 167 166 170 185 207 212 256 284 263 300 306 288 268 263 267 234 230 242 251 255 257 256 256 245 231 276 285 280 282 284 289 304 312 248 255 200 247 252 237 260 274 289 288 297 297 300 301 298 305 307 308 299 286 280 274 266
162 161 161 160 158 159 160 157 160 156 158 162 157 159 152 140 143 155 161 164 171 168 164 168 173 191 188 182 191 172 166 167 166 170 158 129 337 350 332 329 319 301 281 275 267 256 256 261 264 267 269 271 263 231 259 271 274 277 279 283 285 242 246 258 248 249 248 249 266 280 287 290 296 296 303 302 301 301 300 310 305 296 279 277 277
162 162 158 159 159 160 161 158 160 158 159 157 149 147 145 148 153 161 167 168 175 175 171 176 185 193 186 187 190 146 145 154 105 107 131 187 281 346 328 325 324 309 319 309 280 274 279 281 282 282 280 277 262 236 239 244 262 273 275 273 249 238 249 251 246 247 244 248 262 272 282 291 297 297 300 300 303 300 298 306 305 303 293 278 275
161 161 157 159 160 159 159 159 160 158 154 150 153 148 144 159 166 166 171 167 170 177 173 182 194 190 187 183 158 118 127 154 93 104 152 164 182 286 310 309 309 290 311 321 260 264 285 294 294 296 296 274 252 245 243 233 240 255 258 255 243 240 247 249 248 248 245 250 260 265 277 289 294 297 297 300 302 300 299 299 300 306 304 285 268
159 160 159 159 161 161 161 162 162 151 147 153 157 152 150 163 166 165 172 166 166 174 168 177 194 187 183 158 133 123 137 157 137 149 170 162 179 189 197 242 225 262 282 262 247 261 261 257 261 268 266 253 249 250 253 249 246 246 246 249 248 243 242 247 251 251 248 249 261 266 273 283 289 295 296 299 300 300 298 295 300 304 301 292 270
157 161 160 160 163 166 162 161 160 151 154 162 156 153 159 168 164 160 168 166 159 165 167 175 187 176 158 134 131 168 170 177 194 190 197 187 188 188 184 229 232 249 269 251 248 264 253 248 247 252 257 254 254 252 254 259 256 251 246 246 251 251 244 240 241 247 249 248 264 274 275 276 282 287 292 295 297 300 298 293 292 291 292 292 281
153 160 162 163 166 167 161 157 157 156 159 159 156 160 167 165 159 160 167 161 156 168 174 169 169 156 136 138 164 187 185 192 199 194 211 213 205 202 189 218 231 231 257 254 242 255 255 260 259 256 260 259 259 255 253 254 254 256 254 249 249 254 253 247 243 242 245 242 254 270 275 277 280 281 285 290 294 297 299 298 292 288 287 290 290
156 161 162 166 169 166 162 159 158 161 160 156 160 167 165 157 157 164 163 155 160 166 158 147 149 154 150 165 182 184 190 193 194 198 209 222 219 211 199 220 245 244 255 260 256 258 255 261 265 262 262 260 262 260 257 255 254 256 257 256 251 251 255 257 254 247 246 245 244 255 265 273 279 279 278 282 288 291 296 299 297 296 291 287 292
162 162 161 167 168 164 164 162 160 161 160 158 163 163 158 158 159 156 148 150 158 151 146 153 158 170 173 178 185 182 190 191 196 213 218 230 225 216 216 227 258 272 277 274 273 274 267 266 267 263 258 254 256 260 260 259 259 258 257 259 257 255 254 255 259 257 253 251 249 252 260 268 273 276 275 275 278 283 288 293 295 296 290 286 288
164 163 165 169 166 163 164 163 163 159 158 162 161 158 157 158 155 148 149 157 161 156 163 171 169 176 179 182 191 187 194 197 199 212 209 217 222 224 230 225 246 277 285 276 272 271 267 266 265 266 265 261 259 260 261 262 264 264 262 260 259 261 259 254 256 261 260 257 256 256 260 265 266 271 273 272 272 273 278 282 287 290 288 287 281
164 165 168 169 163 162 163 165 164 157 160 163 156 155 157 156 155 161 165 165 165 166 170 175 171 172 178 187 194 187 191 201 199 194 182 184 215 240 256 250 242 259 269 273 279 278 276 274 273 276 277 276 271 267 264 264 265 264 265 265 263 262 261 259 255 261 268 267 264 261 260 263 263 264 267 268 268 266 269 272 277 282 286 287 280
161 164 166 165 163 164 166 166 162 158 161 158 153 157 159 158 159 166 167 164 169 171 167 169 165 162 171 178 177 176 177 185 199 228 173 154 207 284 286 277 276 282 283 291 296 290 288 286 285 285 283 281 276 273 270 267 267 265 264 264 264 263 262 262 256 261 271 273 272 269 264 263 262 263 264 264 265 264 263 264 269 276 279 279 279
161 166 168 164 165 165 165 166 159 157 157 154 158 161 159 160 161 165 166 166 172 167 156 154 152 155 158 153 155 161 158 159 181 337 358 25 28 336 311 300 304 304 298 304 306 297 297 297 295 294 291 289 284 283 281 276 275 273 269 266 265 265 264 263 258 262 271 274 276 275 269 266 263 262 262 262 263 264 261 260 264 269 274 275 277
166 169 166 164 165 163 163 163 157 156 157 161 166 164 162 163 164 169 168 166 163 153 147 143 142 146 144 143 150 149 146 143 115 7 16 19 359 333 315 316 324 318 305 307 308 302 302 303 300 299 298 296 293 291 289 284 283 281 277 273 269 266 264 263 262 264 270 272 272 270 267 268 268 263 261 259 258 262 263 262 264 265 269 272 273
169 169 163 161 162 163 165 163 160 163 166 170 170 166 166 165 165 167 164 161 153 147 145 139 138 141 141 146 145 140 142 123 92 14 17 359 333 324 309 317 328 323 317 313 309 303 301 302 301 301 298 294 294 293 291 288 286 285 283 279 277 276 271 269 270 269 269 270 268 266 263 263 267 266 263 258 252 257 264 265 267 265 266 268 268
166 167 160 160 165 169 169 168 169 171 170 172 170 168 166 162 161 159 158 156 147 145 144 137 138 140 143 146 138 133 129 108 107 13 349 322 308 299 295 315 324 319 323 319 311 308 305 304 304 301 296 294 297 294 291 290 287 286 284 281 282 282 276 275 280 276 269 268 267 267 265 257 257 262 263 259 252 254 260 262 263 262 264 266 265
159 162 160 162 170 171 170 173 174 171 170 172 169 168 167 160 156 153 154 151 144 144 140 137 137 135 141 143 133 122 106 61 20 329 288 278 290 294 298 313 321 319 323 321 313 311 307 306 305 303 301 300 299 296 295 295 294 290 286 284 283 282 280 281 285 283 273 270 270 270 269 259 254 257 258 256 253 254 257 257 257 260 265 265 264
157 163 167 169 174 173 173 177 175 170 171 173 169 165 163 156 151 151 149 149 148 140 134 132 129 127 130 127 123 113 101 97 303 262 249 276 288 297 305 315 327 323 319 319 314 310 307 306 305 304 304 303 302 300 299 298 297 296 295 295 292 289 291 290 289 287 280 276 275 271 268 263 258 258 257 254 252 253 253 255 256 259 263 264 263
160 166 173 176 182 180 177 181 179 173 171 172 170 164 162 153 148 153 150 150 148 134 132 133 126 128 128 118 117 109 105 123 277 282 277 288 293 304 316 326 332 321 315 317 314 312 310 308 309 309 307 307 307 306 303 302 301 300 303 303 300 298 296 294 294 292 286 281 278 274 269 267 265 261 260 260 258 254 249 250 254 256 259 261 260
165 172 185 187 191 185 178 183 186 178 171 172 169 161 158 149 147 155 148 144 136 125 130 134 131 135 134 130 131 131 132 136 191 254 266 290 308 318 326 332 326 314 314 315 313 315 315 314 315 313 311 309 309 308 306 307 306 304 306 304 305 307 298 291 288 283 282 283 280 279 277 273 270 264 260 258 258 260 258 249 250 256 258 257 255
180 182 191 189 196 194 181 184 188 181 172 170 165 158 158 154 154 157 146 140 133 127 130 130 132 135 146 164 167 171 179 186 214 224 226 240 266 288 300 304 301 301 304 306 311 316 316 317 318 317 316 314 311 311 309 307 305 307 310 306 307 311 307 300 296 289 291 295 288 284 284 279 275 271 264 259 257 263 266 257 253 256 255 253 250
201 188 180 183 191 188 181 185 186 181 169 162 159 163 171 165 157 154 144 133 129 129 131 135 142 136 154 181 167 170 194 210 237 245 244 246 252 263 277 288 294 298 299 303 315 318 319 320 319 321 322 321 319 315 310 310 309 310 311 308 306 308 308 316 317 309 304 305 293 282 283 283 281 278 272 271 266 263 265 263 262 259 253 251 245
196 186 171 176 182 181 190 193 183 175 168 162 164 171 174 162 148 145 138 125 121 119 111 127 137 122 128 170 136 105 69 232 260 299 304 286 281 286 302 319 324 321 320 325 324 322 325 323 322 323 323 322 321 317 313 312 309 308 306 307 308 307 309 315 318 312 307 313 306 290 286 284 282 282 278 278 274 265 264 263 263 259 250 245 238
176 175 169 171 182 195 202 192 165 164 167 163 168 174 165 150 141 135 130 124 124 123 120 132 137 135 144 141 111 89 56 34 323 343 319 308 322 334 344 350 347 338 343 348 340 333 332 325 320 321 321 319 318 316 317 314 311 312 307 299 294 293 304 311 313 310 308 314 312 302 297 289 285 287 286 284 278 270 266 261 260 259 252 246 242
164 165 165 165 174 195 196 176 152 157 168 164 167 170 156 144 138 130 128 127 132 147 150 153 153 149 145 126 134 120 50 27 42 19 334 324 342 358 351 348 353 346 353 356 340 328 322 313 305 306 309 311 316 317 317 316 314 314 308 300 296 295 298 299 300 303 307 309 307 302 298 293 293 293 290 290 286 280 273 267 264 259 255 257 257
152 151 152 149 150 162 166 157 149 150 162 166 163 158 145 139 138 130 126 130 145 156 146 146 142 127 124 107 71 46 45 20 27 32 6 357 348 337 335 335 335 331 330 319 318 314 301 297 296 298 295 291 302 312 313 315 313 313 310 306 304 301 298 294 292 294 297 301 303 302 296 292 291 289 290 290 286 284 279 276 272 259 257 263 263
150 149 144 140 140 144 148 156 162 154 149 153 150 144 140 140 140 128 123 131 140 135 124 127 119 117 132 97 75 58 51 31 17 20 2 356 338 330 323 317 312 314 313 302 309 313 301 296 290 292 291 286 294 299 297 300 302 305 308 307 307 307 306 301 295 293 290 292 298 303 303 299 295 295 298 293 286 286 283 281 282 273 266 267 263
153 153 145 144 147 146 149 155 166 163 150 150 145 135 130 131 130 127 130 136 135 129 130 145 147 155 152 81 76 69 58 37 13 340 319 321 319 322 319 316 313 312 315 311 309 312 309 304 297 299 297 288 288 285 282 283 283 287 295 303 309 311 311 308 306 305 298 292 293 299 303 302 301 302 301 297 294 295 290 280 282 283 275 268 262
150 151 144 150 156 158 161 155 160 168 160 166 165 144 124 127 145 154 152 147 145 145 153 164 163 156 118 87 88 89 65 353 355 352 342 330 323 332 333 328 329 327 328 329 322 321 322 318 318 322 309 295 292 292 291 286 280 285 289 293 300 302 305 307 309 308 304 301 300 301 303 302 302 301 297 296 294 292 290 281 277 280 279 273 267